SCP
0 0 0 0 0 0 0 0 0 0 0 0 0 0 0 0 0 0 0 0 0 0 0 0 0 0 0 0 0 0 0 0 0 0 0 0 0 0 0 0 0 0 0
0 0 0 0 0 0 0 0 0 0 0 0 0 0 0 0 0 0 0 0 0 0 0 0 0 0 0 0 0 0 0 0 0 0 0 0 0 0 0 0 0 0 0
0 0 0 0 0 0 0 0 0 0 0 0 0 0 0 0 0 0 0 0 0 0 0 0 0 0 0 0 0 0 0 0 0 0 0 0 0 0 0 0 0 0 0
0 0 0 0 0 0 0 0 0 0 0 0 0 0 0 0 0 0 0 0 0 0 0 0 0 0 0 0 0 0 0 0 0 0 0 0 0 0 0 0 0 0 0
0 0 0 0 0 0 0 0 0 0 0 0 0 0 0 0 0 0 0 0 0 0 0 0 0 0 0 0 0 0 0 0 0 0 0 0 0 0 0 0 0 0 0
0 0 0 0 0 0 0 0 0 0 0 0 0 0 0 0 0 0 0 0 0 0 0 0 0 0 0 0 0 0 0 0 0 0 0 0 0 0 0 0 0 0 0
0 0 0 0 0 0 0 0 0 0 0 0 0 0 0 0 0 0 0 0 0 0 0 0 0 0 0 0 0 0 0 0 0 0 0 0 0 0 0 0 0 0 0
0 0 0 0 0 0 0 0 0 0 0 0 0 0 0 0 0 0 0 0 0 0 0 0 0 0 0 0 0 0 0 0 0 0 0 0 0 0 0 0 0 0 0
0 0 0 0 0 0 0 0 0 0 0 0 0 0 0 0 0 0 0 0 0 0 0 0 0 0 0 0 0 0 0 0 0 0 0 0 0 0 0 0 0 0 0
0 0 0 0 0 0 0 0 0 0 0 0 0 0 0 0 0 0 0 0 0 0 0 0 0 0 0 0 0 0 0 0 0 0 0 0 0 0 0 0 0 0 0
0 0 0 0 0 0 0 0 0 0 0 0 0 0 0 0 0 0 0 0 0 0 0 0 0 0 0 0 0 0 0 0 0 0 0 0 0 0 0 0 0 0 0
0 0 0 0 0 0 0 0 0 0 0 0 0 0 0 0 0 0 0 0 0 0 0 0 0 0 0 0 0 0 0 0 0 0 0 0 0 0 0 0 0 0 0
0 0 0 0 0 0 0 0 0 0 0 0 0 0 0 0 0 0 0 0 0 0 0 0 0 0 0 0 0 0 0 0 0 0 0 0 0 0 0 0 0 0 0
0 0 0 0 0 0 0 0 0 0 0 0 0 0 0 0 0 0 0 0 0 0 0 0 0 0 0 0 0 0 0 0 0 0 0 0 0 0 0 0 0 0 0
0 0 0 0 0 0 0 0 0 0 0 0 0 0 0 0 0 0 0 0 0 0 0 0 0 0 0 0 0 0 0 0 0 0 0 0 0 0 0 0 0 0 0
0 0 0 0 0 0 0 0 0 0 0 0 0 0 0 0 0 0 0 0 0 0 0 0 0 0 0 0 0 0 0 0 0 0 0 0 0 0 0 0 0 0 0
0 0 0 0 0 0 0 0 0 0 0 0 0 0 0 0 0 0 0 0 0 0 0 0 0 0 0 0 0 0 0 0 0 0 0 0 0 0 0 0 0 0 0
0 0 0 0 0 0 0 0 0 0 0 0 0 0 0 0 0 0 0 0 0 0 0 0 0 0 0 0 0 0 0 0 0 0 0 0 0 0 0 0 0 0 0
0 0 0 0 0 0 0 0 0 0 0 0 0 0 0 0 0 0 0 0 0 0 0 0 0 0 0 0 0 0 0 0 0 0 0 0 0 0 0 0 0 0 0
0 0 0 0 0 0 0 0 0 0 0 0 0 0 0 0 0 0 0 0 0 0 0 0 0 0 0 0 0 0 0 0 0 0 0 0 0 0 0 0 0 0 0
0 0 0 0 0 0 0 0 0 0 0 0 0 0 0 0 0 0 0 0 0 0 0 0 0 0 0 0 0 0 0 0 0 0 0 0 0 0 0 0 0 0 0
0 0 0 0 0 0 0 0 0 0 0 0 0 0 0 0 0 0 0 0 0 0 0 0 0 0 0 0 0 0 0 0 0 0 0 0 0 0 0 0 0 0 0
0 0 0 0 0 0 0 0 0 0 0 0 0 0 0 0 0 0 0 0 0 0 0 0 0 0 0 0 0 0 0 0 0 0 0 0 0 0 0 0 0 0 0
0 0 0 0 0 0 0 0 0 0 0 0 0 0 0 0 0 0 0 0 0 0 0 0 0 0 0 0 0 0 0 0 0 0 0 0 0 0 0 0 0 0 0
0 0 0 0 0 0 0 0 0 0 0 0 0 0 0 0 0 0 0 0 0 0 0 0 0 0 0 0 0 0 0 0 0 0 0 0 0 0 0 0 0 0 0
0 0 0 0 0 0 0 0 0 0 0 0 0 0 0 0 0 0 0 0 0 0 0 0 0 0 0 0 0 0 0 0 0 0 0 0 0 0 0 0 0 0 0
Wind_Speed_500mb
42 39 38 38 40 39 38 37 37 35 30 26 20 18 15 11 6 5 10 13 16 18 20 23 25 27 27 28 28 25 24 22 22 23 23 23 20 18 22 22 23 25 28
39 38 38 39 39 39 39 39 39 34 30 25 21 21 17 11 6 9 11 14 16 18 21 24 25 27 28 30 30 27 25 23 20 18 15 16 23 22 22 22 24 26 29
39 39 39 40 39 40 41 43 40 33 29 25 24 22 17 11 10 12 12 15 17 21 25 27 27 27 29 30 29 28 25 23 20 15 15 16 18 23 23 23 26 29 33
40 40 39 41 41 42 44 42 36 32 29 27 26 26 21 17 14 15 14 16 20 25 28 30 30 29 32 33 29 27 24 23 20 17 13 15 18 21 24 25 27 30 31
42 42 42 42 41 44 45 42 37 32 30 30 31 30 27 23 17 18 18 17 21 27 30 33 33 34 36 36 31 27 24 22 23 19 15 15 18 21 23 27 30 33 34
42 42 43 44 46 49 48 42 33 32 32 33 34 36 31 27 23 24 22 20 23 27 32 36 37 38 36 34 30 25 25 24 21 23 20 18 18 20 24 27 31 34 36
42 44 45 48 51 51 46 40 38 33 35 36 37 39 38 36 33 31 27 26 27 29 34 39 41 41 39 36 32 31 27 24 25 24 24 22 20 21 24 28 30 33 35
40 43 48 51 52 50 46 43 38 34 36 36 40 42 44 46 43 39 36 35 35 33 36 41 43 43 41 38 36 33 31 28 27 25 25 24 22 22 24 28 31 34 36
44 47 49 50 52 51 48 41 33 35 37 39 41 46 52 52 53 50 48 45 45 39 39 42 45 46 45 43 40 35 34 32 29 28 28 28 25 23 26 29 31 34 38
42 44 46 50 53 51 43 36 34 37 37 40 46 51 54 57 61 60 60 55 52 46 43 46 46 46 49 47 45 38 36 32 34 33 33 31 29 27 27 29 31 32 34
35 38 43 48 51 47 43 37 39 43 44 46 52 54 58 60 63 67 67 63 54 52 49 49 45 47 49 50 50 45 37 39 39 39 38 35 33 31 31 31 32 33 33
33 35 35 39 41 41 41 42 46 50 53 55 59 59 61 63 65 69 70 65 60 59 53 51 47 49 51 53 52 49 45 42 41 43 41 38 37 34 33 33 34 35 35
29 28 30 32 33 36 40 44 47 50 56 57 61 60 61 60 62 66 64 64 67 68 52 55 54 53 52 55 55 53 47 44 42 45 41 40 40 39 36 36 36 37 37
23 22 22 24 26 30 35 38 41 43 48 51 54 56 53 50 51 54 58 59 59 67 60 58 59 54 48 50 52 58 58 47 43 43 43 43 43 41 39 39 38 38 40
19 17 18 19 22 25 28 32 38 42 46 48 47 48 47 48 45 47 51 55 55 57 63 62 66 67 64 58 58 60 59 54 49 44 43 45 45 43 42 42 41 41 42
14 14 16 20 26 32 35 38 43 46 47 48 48 49 47 49 49 48 50 55 56 58 66 72 74 72 70 69 64 62 60 57 52 49 49 50 48 46 46 46 44 45 47
16 19 23 28 33 37 40 41 43 48 50 50 49 50 52 50 49 50 53 58 58 57 64 70 70 70 67 69 68 68 65 59 54 54 55 54 53 50 50 49 47 48 48
18 21 22 25 28 31 34 38 42 45 45 43 45 50 51 51 49 52 53 56 54 52 52 60 67 65 67 61 60 58 58 62 61 60 60 59 57 56 55 52 49 49 50
17 19 22 23 26 28 31 34 37 38 39 38 36 39 43 46 48 50 48 49 57 57 51 48 58 61 68 64 59 56 56 56 56 62 62 62 61 61 59 54 51 50 51
13 15 17 18 22 24 26 29 30 31 32 31 32 34 39 39 39 38 39 44 51 59 59 56 55 52 53 56 56 56 57 58 58 60 65 65 63 63 61 55 52 51 51
14 17 17 20 21 22 24 26 29 30 30 30 32 36 37 37 39 40 42 42 44 49 55 59 55 56 55 52 52 54 55 57 59 61 62 62 62 64 59 54 52 51 51
17 20 22 24 25 25 25 27 29 30 32 32 32 33 35 37 41 43 44 44 43 46 49 54 57 56 54 55 55 55 56 57 59 60 60 56 56 58 57 55 54 52 50
24 25 26 27 28 29 28 28 30 31 32 34 35 36 38 40 43 45 47 47 47 48 48 53 56 57 53 54 55 57 59 58 58 56 54 53 52 53 54 54 52 50 50
23 22 24 27 28 29 28 32 35 37 38 39 40 41 43 44 44 45 46 47 48 50 51 53 56 59 59 59 59 58 58 57 57 57 58 56 53 52 53 53 50 48 48
17 18 20 24 26 29 30 33 36 38 39 40 40 41 42 43 44 45 46 46 48 51 51 52 54 55 56 59 61 60 58 57 58 57 59 60 55 53 54 52 50 48 48
22 24 25 26 28 32 32 33 34 34 34 35 37 39 41 42 42 43 44 45 46 49 50 52 53 53 54 56 58 58 58 59 60 58 60 62 61 58 56 53 49 48 46
Wind_Direction_500mb
226 225 224 222 216 212 211 207 205 208 211 213 214 211 211 225 259 302 316 323 332 336 330 334 331 326 326 324 321 317 311 309 302 310 314 314 316 306 317 320 321 323 322
222 223 221 215 212 211 210 207 207 210 214 217 216 214 218 232 267 293 299 314 322 330 330 323 320 320 321 322 319 310 306 307 306 307 308 312 310 301 307 312 317 320 322
222 222 218 212 209 209 208 208 210 214 220 222 220 218 226 245 264 275 290 306 320 323 318 313 315 314 314 316 312 307 306 303 302 299 302 304 302 300 305 312 319 322 321
223 219 211 210 207 208 208 209 213 220 226 228 225 224 228 240 253 271 283 303 316 317 311 307 309 311 310 311 308 307 307 300 295 291 293 293 297 299 305 313 317 317 316
215 209 206 207 207 208 210 212 217 226 230 233 231 230 231 236 250 261 277 295 309 310 305 303 303 305 303 306 306 303 301 294 286 278 277 282 292 298 305 311 315 317 319
205 205 207 207 208 209 211 216 224 234 241 241 238 235 237 242 247 254 268 287 295 300 302 301 300 298 296 300 302 298 296 291 276 276 271 274 286 296 302 307 313 318 324
207 207 209 210 210 211 215 224 231 236 245 247 245 244 243 245 247 253 264 278 286 297 300 300 298 293 292 295 297 298 293 283 272 271 273 277 282 291 298 305 312 316 318
215 214 215 215 214 215 220 230 237 246 254 257 255 251 248 247 252 256 263 273 280 288 293 295 294 290 287 289 290 294 290 282 270 265 270 274 280 287 296 304 310 314 316
221 221 221 220 218 222 227 236 248 256 258 262 262 257 254 251 253 257 262 268 274 280 286 291 292 289 284 283 282 287 285 278 267 263 268 272 277 286 294 299 306 312 315
227 225 223 223 223 226 236 244 251 255 262 264 265 263 259 254 254 257 263 266 271 279 283 286 289 289 282 280 281 281 280 274 264 263 266 270 277 284 289 296 304 308 314
231 227 223 223 224 229 238 244 253 259 261 265 266 265 262 258 256 259 264 268 275 278 280 284 286 283 277 274 275 279 276 266 262 260 265 269 274 280 289 295 300 304 308
225 228 226 225 227 234 242 247 253 260 267 270 270 270 265 261 257 259 263 273 279 279 284 284 283 276 273 272 268 275 274 268 260 259 259 264 269 275 281 288 294 298 303
209 208 212 217 223 234 244 254 261 267 271 272 274 274 271 268 267 266 269 273 279 282 285 283 281 277 270 266 268 272 270 272 263 258 260 261 266 271 278 283 288 294 299
191 186 200 218 231 242 251 258 264 267 271 275 277 279 281 278 273 271 274 274 276 278 283 283 284 281 272 264 259 260 268 268 268 258 255 257 263 270 275 280 285 291 295
191 201 217 228 239 249 257 266 271 272 275 278 279 277 275 273 274 269 269 272 275 276 275 274 270 271 271 265 260 260 265 267 267 260 257 258 263 270 274 279 284 289 291
191 217 238 253 263 269 272 274 277 279 279 279 278 277 276 276 277 275 274 274 274 271 267 269 271 269 266 268 265 263 263 268 270 264 257 259 263 268 272 277 282 287 290
245 258 263 268 272 278 282 284 284 285 286 284 282 281 280 278 276 279 279 279 277 272 268 271 272 271 270 269 269 267 267 272 272 267 260 259 261 265 269 275 279 284 289
279 281 282 287 290 290 294 296 298 297 293 289 287 282 282 285 286 286 285 281 276 275 273 272 275 274 277 278 276 273 271 270 267 265 262 258 260 262 266 271 276 281 286
296 293 293 298 300 306 312 313 311 310 307 302 291 286 286 286 287 285 280 275 281 285 285 282 277 276 274 279 279 276 275 273 269 262 262 258 258 260 264 269 273 278 283
312 303 307 308 311 314 317 319 316 317 312 308 304 301 296 292 287 284 279 275 275 280 282 281 284 290 285 278 278 277 275 272 270 266 260 258 258 259 263 267 271 276 282
313 315 318 322 327 330 328 323 319 317 317 320 315 306 303 304 304 302 298 291 283 276 278 281 282 282 283 283 280 277 274 273 271 269 265 260 257 259 262 266 268 273 279
299 309 315 313 318 317 318 318 319 318 317 315 313 312 311 306 304 301 297 294 291 283 277 274 275 275 274 275 276 276 275 272 270 269 267 263 261 259 258 259 264 271 276
296 299 302 305 307 305 309 311 309 312 313 316 317 313 308 305 305 306 304 302 297 290 283 277 275 273 273 273 274 273 272 270 271 269 266 260 259 259 254 255 262 267 274
299 302 305 301 302 303 312 311 313 314 314 313 311 310 310 309 308 307 304 302 298 294 290 285 281 278 276 273 272 272 272 269 266 264 261 258 259 255 249 254 261 266 270
304 307 308 312 314 315 319 318 318 316 314 311 311 311 311 310 310 308 306 303 300 298 295 290 286 284 280 277 274 272 270 268 264 261 257 255 255 253 250 254 258 263 267
310 313 320 319 319 320 323 323 321 321 319 318 317 316 316 316 313 311 309 306 303 301 299 296 292 289 285 280 277 274 270 266 265 260 257 252 251 252 253 255 257 260 265
Wind_Speed_850mb
42 39 38 38 40 39 38 37 37 35 30 26 20 18 15 11 6 5 10 13 16 18 20 23 25 27 27 28 28 25 24 22 22 23 23 23 20 18 22 22 23 25 28
39 38 38 39 39 39 39 39 39 34 30 25 21 21 17 11 6 9 11 14 16 18 21 24 25 27 28 30 30 27 25 23 20 18 15 16 23 22 22 22 24 26 29
39 39 39 40 39 40 41 43 40 33 29 25 24 22 17 11 10 12 12 15 17 21 25 27 27 27 29 30 29 28 25 23 20 15 15 16 18 23 23 23 26 29 33
40 40 39 41 41 42 44 42 36 32 29 27 26 26 21 17 14 15 14 16 20 25 28 30 30 29 32 33 29 27 24 23 20 17 13 15 18 21 24 25 27 30 31
42 42 42 42 41 44 45 42 37 32 30 30 31 30 27 23 17 18 18 17 21 27 30 33 33 34 36 36 31 27 24 22 23 19 15 15 18 21 23 27 30 33 34
42 42 43 44 46 49 48 42 33 32 32 33 34 36 31 27 23 24 22 20 23 27 32 36 37 38 36 34 30 25 25 24 21 23 20 18 18 20 24 27 31 34 36
42 44 45 48 51 51 46 40 38 33 35 36 37 39 38 36 33 31 27 26 27 29 34 39 41 41 39 36 32 31 27 24 25 24 24 22 20 21 24 28 30 33 35
40 43 48 51 52 50 46 43 38 34 36 36 40 42 44 46 43 39 36 35 35 33 36 41 43 43 41 38 36 33 31 28 27 25 25 24 22 22 24 28 31 34 36
44 47 49 50 52 51 48 41 33 35 37 39 41 46 52 52 53 50 48 45 45 39 39 42 45 46 45 43 40 35 34 32 29 28 28 28 25 23 26 29 31 34 38
42 44 46 50 53 51 43 36 34 37 37 40 46 51 54 57 61 60 60 55 52 46 43 46 46 46 49 47 45 38 36 32 34 33 33 31 29 27 27 29 31 32 34
35 38 43 48 51 47 43 37 39 43 44 46 52 54 58 60 63 67 67 63 54 52 49 49 45 47 49 50 50 45 37 39 39 39 38 35 33 31 31 31 32 33 33
33 35 35 39 41 41 41 42 46 50 53 55 59 59 61 63 65 69 70 65 60 59 53 51 47 49 51 53 52 49 45 42 41 43 41 38 37 34 33 33 34 35 35
29 28 30 32 33 36 40 44 47 50 56 57 61 60 61 60 62 66 64 64 67 68 52 55 54 53 52 55 55 53 47 44 42 45 41 40 40 39 36 36 36 37 37
23 22 22 24 26 30 35 38 41 43 48 51 54 56 53 50 51 54 58 59 59 67 60 58 59 54 48 50 52 58 58 47 43 43 43 43 43 41 39 39 38 38 40
19 17 18 19 22 25 28 32 38 42 46 48 47 48 47 48 45 47 51 55 55 57 63 62 66 67 64 58 58 60 59 54 49 44 43 45 45 43 42 42 41 41 42
14 14 16 20 26 32 35 38 43 46 47 48 48 49 47 49 49 48 50 55 56 58 66 72 74 72 70 69 64 62 60 57 52 49 49 50 48 46 46 46 44 45 47
16 19 23 28 33 37 40 41 43 48 50 50 49 50 52 50 49 50 53 58 58 57 64 70 70 70 67 69 68 68 65 59 54 54 55 54 53 50 50 49 47 48 48
18 21 22 25 28 31 34 38 42 45 45 43 45 50 51 51 49 52 53 56 54 52 52 60 67 65 67 61 60 58 58 62 61 60 60 59 57 56 55 52 49 49 50
17 19 22 23 26 28 31 34 37 38 39 38 36 39 43 46 48 50 48 49 57 57 51 48 58 61 68 64 59 56 56 56 56 62 62 62 61 61 59 54 51 50 51
13 15 17 18 22 24 26 29 30 31 32 31 32 34 39 39 39 38 39 44 51 59 59 56 55 52 53 56 56 56 57 58 58 60 65 65 63 63 61 55 52 51 51
14 17 17 20 21 22 24 26 29 30 30 30 32 36 37 37 39 40 42 42 44 49 55 59 55 56 55 52 52 54 55 57 59 61 62 62 62 64 59 54 52 51 51
17 20 22 24 25 25 25 27 29 30 32 32 32 33 35 37 41 43 44 44 43 46 49 54 57 56 54 55 55 55 56 57 59 60 60 56 56 58 57 55 54 52 50
24 25 26 27 28 29 28 28 30 31 32 34 35 36 38 40 43 45 47 47 47 48 48 53 56 57 53 54 55 57 59 58 58 56 54 53 52 53 54 54 52 50 50
23 22 24 27 28 29 28 32 35 37 38 39 40 41 43 44 44 45 46 47 48 50 51 53 56 59 59 59 59 58 58 57 57 57 58 56 53 52 53 53 50 48 48
17 18 20 24 26 29 30 33 36 38 39 40 40 41 42 43 44 45 46 46 48 51 51 52 54 55 56 59 61 60 58 57 58 57 59 60 55 53 54 52 50 48 48
22 24 25 26 28 32 32 33 34 34 34 35 37 39 41 42 42 43 44 45 46 49 50 52 53 53 54 56 58 58 58 59 60 58 60 62 61 58 56 53 49 48 46
Wind_Direction_850mb
226 225 224 222 216 212 211 207 205 208 211 213 214 211 211 225 259 302 316 323 332 336 330 334 331 326 326 324 321 317 311 309 302 310 314 314 316 306 317 320 321 323 322
222 223 221 215 212 211 210 207 207 210 214 217 216 214 218 232 267 293 299 314 322 330 330 323 320 320 321 322 319 310 306 307 306 307 308 312 310 301 307 312 317 320 322
222 222 218 212 209 209 208 208 210 214 220 222 220 218 226 245 264 275 290 306 320 323 318 313 315 314 314 316 312 307 306 303 302 299 302 304 302 300 305 312 319 322 321
223 219 211 210 207 208 208 209 213 220 226 228 225 224 228 240 253 271 283 303 316 317 311 307 309 311 310 311 308 307 307 300 295 291 293 293 297 299 305 313 317 317 316
215 209 206 207 207 208 210 212 217 226 230 233 231 230 231 236 250 261 277 295 309 310 305 303 303 305 303 306 306 303 301 294 286 278 277 282 292 298 305 311 315 317 319
205 205 207 207 208 209 211 216 224 234 241 241 238 235 237 242 247 254 268 287 295 300 302 301 300 298 296 300 302 298 296 291 276 276 271 274 286 296 302 307 313 318 324
207 207 209 210 210 211 215 224 231 236 245 247 245 244 243 245 247 253 264 278 286 297 300 300 298 293 292 295 297 298 293 283 272 271 273 277 282 291 298 305 312 316 318
215 214 215 215 214 215 220 230 237 246 254 257 255 251 248 247 252 256 263 273 280 288 293 295 294 290 287 289 290 294 290 282 270 265 270 274 280 287 296 304 310 314 316
221 221 221 220 218 222 227 236 248 256 258 262 262 257 254 251 253 257 262 268 274 280 286 291 292 289 284 283 282 287 285 278 267 263 268 272 277 286 294 299 306 312 315
227 225 223 223 223 226 236 244 251 255 262 264 265 263 259 254 254 257 263 266 271 279 283 286 289 289 282 280 281 281 280 274 264 263 266 270 277 284 289 296 304 308 314
231 227 223 223 224 229 238 244 253 259 261 265 266 265 262 258 256 259 264 268 275 278 280 284 286 283 277 274 275 279 276 266 262 260 265 269 274 280 289 295 300 304 308
225 228 226 225 227 234 242 247 253 260 267 270 270 270 265 261 257 259 263 273 279 279 284 284 283 276 273 272 268 275 274 268 260 259 259 264 269 275 281 288 294 298 303
209 208 212 217 223 234 244 254 261 267 271 272 274 274 271 268 267 266 269 273 279 282 285 283 281 277 270 266 268 272 270 272 263 258 260 261 266 271 278 283 288 294 299
191 186 200 218 231 242 251 258 264 267 271 275 277 279 281 278 273 271 274 274 276 278 283 283 284 281 272 264 259 260 268 268 268 258 255 257 263 270 275 280 285 291 295
191 201 217 228 239 249 257 266 271 272 275 278 279 277 275 273 274 269 269 272 275 276 275 274 270 271 271 265 260 260 265 267 267 260 257 258 263 270 274 279 284 289 291
191 217 238 253 263 269 272 274 277 279 279 279 278 277 276 276 277 275 274 274 274 271 267 269 271 269 266 268 265 263 263 268 270 264 257 259 263 268 272 277 282 287 290
245 258 263 268 272 278 282 284 284 285 286 284 282 281 280 278 276 279 279 279 277 272 268 271 272 271 270 269 269 267 267 272 272 267 260 259 261 265 269 275 279 284 289
279 281 282 287 290 290 294 296 298 297 293 289 287 282 282 285 286 286 285 281 276 275 273 272 275 274 277 278 276 273 271 270 267 265 262 258 260 262 266 271 276 281 286
296 293 293 298 300 306 312 313 311 310 307 302 291 286 286 286 287 285 280 275 281 285 285 282 277 276 274 279 279 276 275 273 269 262 262 258 258 260 264 269 273 278 283
312 303 307 308 311 314 317 319 316 317 312 308 304 301 296 292 287 284 279 275 275 280 282 281 284 290 285 278 278 277 275 272 270 266 260 258 258 259 263 267 271 276 282
313 315 318 322 327 330 328 323 319 317 317 320 315 306 303 304 304 302 298 291 283 276 278 281 282 282 283 283 280 277 274 273 271 269 265 260 257 259 262 266 268 273 279
299 309 315 313 318 317 318 318 319 318 317 315 313 312 311 306 304 301 297 294 291 283 277 274 275 275 274 275 276 276 275 272 270 269 267 263 261 259 258 259 264 271 276
296 299 302 305 307 305 309 311 309 312 313 316 317 313 308 305 305 306 304 302 297 290 283 277 275 273 273 273 274 273 272 270 271 269 266 260 259 259 254 255 262 267 274
299 302 305 301 302 303 312 311 313 314 314 313 311 310 310 309 308 307 304 302 298 294 290 285 281 278 276 273 272 272 272 269 266 264 261 258 259 255 249 254 261 266 270
304 307 308 312 314 315 319 318 318 316 314 311 311 311 311 310 310 308 306 303 300 298 295 290 286 284 280 277 274 272 270 268 264 261 257 255 255 253 250 254 258 263 267
310 313 320 319 319 320 323 323 321 321 319 318 317 316 316 316 313 311 309 306 303 301 299 296 292 289 285 280 277 274 270 266 265 260 257 252 251 252 253 255 257 260 265